Location: Vancouver
(49.2500°N, 123.1330°W)
Time: 09:49:16
(UTC-07:00)

ERS-2 - Visible Passes

Search period start: 06 May 2016 00:00
Search period end: 16 May 2016 00:00
Orbit: 507 x 511 km, 98.5° (Epoch: 05 May)

Date Brightness Start Highest point End Pass type
(mag) Time Alt. Az. Time Alt. Az. Time Alt. Az.
06 May 3.6 02:08:37 10° NE 02:11:53 28° E 02:12:05 28° ESE visible
06 May 3.5 03:42:28 10° N 03:45:39 27° WNW 03:46:58 22° W visible
07 May 4.2 01:52:17 10° NE 01:54:59 19° E 01:55:12 18° E visible
07 May 2.9 03:25:27 10° N 03:28:59 40° WNW 03:30:04 31° WSW visible
08 May 4.7 01:36:25 10° ENE 01:38:01 12° E 01:38:17 12° E visible
08 May 2.3 03:08:32 10° N 03:12:14 63° WNW 03:13:10 45° SW visible
09 May 2.1 02:51:42 10° NNE 02:55:28 83° ESE 02:56:15 54° S visible
09 May 4.5 04:27:28 10° NW 04:28:42 11° WNW 04:29:56 10° WNW visible
10 May 2.6 02:34:57 10° NNE 02:38:38 52° ESE 02:39:20 44° SE visible
10 May 4.2 04:09:44 10° NNW 04:12:06 16° WNW 04:14:12 11° W visible
11 May 3.3 02:18:20 10° NNE 02:21:46 33° E 02:22:24 31° ESE visible
11 May 3.7 03:52:26 10° N 03:55:26 23° WNW 03:57:17 16° WSW visible
12 May 3.9 02:01:53 10° NE 02:04:50 22° E 02:05:28 21° ESE visible
12 May 3.2 03:35:20 10° N 03:38:44 34° WNW 03:40:20 23° WSW visible
13 May 4.5 01:45:44 10° ENE 01:47:51 15° E 01:48:32 14° ESE visible
13 May 2.5 03:18:20 10° N 03:22:00 52° WNW 03:23:24 32° SW visible
14 May 2.1 03:01:27 10° NNE 03:05:12 83° WNW 03:06:27 40° SSW visible
15 May 2.4 02:44:38 10° NNE 02:48:21 62° ESE 02:49:30 40° SSE visible
15 May 4.4 04:19:43 10° NNW 04:21:43 14° WNW 04:23:44 10° W visible
